Weather History for Cairo, IL

Change the Weather History Date:

Tuesday, December 4, 2012

  Actual Average Record
Temperature  
Mean Temperature 57 °F -  
Max Temperature 68 °F 48 °F 73 °F (2013)
Min Temperature 46 °F 35 °F 17 °F (2006)
Degree Days  
Heating Degree Days 8    
Growing Degree Days 7 (Base 50)    
Moisture  
Dew Point 53 °F    
Average Humidity 79    
Maximum Humidity 88    
Minimum Humidity 68    
Precipitation  
Precipitation 0.14 in - - ()
Sea Level Pressure  
Sea Level Pressure 30.13 in    
Wind  
Wind Speed 9 mph (WNW)    
Max Wind Speed 16 mph    
Max Gust Speed 20 mph    
Visibility 10 miles    
Events Rain , Thunderstorm    
Averages and records for this station are not official NWS values.
T = Trace of Precipitation, MM = Missing Value Source: NWS Daily Summary

Daily Weather History Graph

Daily Weather History Graph

Search for Another Location

Airport:

Trip Planner

Search our weather history database for the weather conditions in past years. The results will help you decide how hot, cold, wet, or windy it might be!

Date:

Astronomy

Dec. 04, 2012 Rise Set
Actual Time 6:54 AM CST 4:39 PM CST
Civil Twilight 6:26 AM CST 5:08 PM CST
Nautical Twilight 5:53 AM CST 5:40 PM CST
Astronomical Twilight 5:22 AM CST 6:12 PM CST
Moon 10:21 PM CST (12/4) 10:53 AM CST (12/4)
Length of Visible Light 10h 42m
Length of Day
9h 44m
Waning Gibbous, 69% of the Moon is Illuminated
Dec 4
Waning Gibbous
Dec 6
Last Quarter
Dec 13
New
Dec 19
First Quarter
Dec 28
Full

Hourly Weather History & Observations

Time (CST) Temp. Windchill Dew Point Humidity Pressure Visibility Wind Dir Wind Speed Gust Speed Precip Events Conditions
12:15 AM 66.2 °F - 55.4 °F 68% 30.04 in 10.0 mi South 10.4 mph 19.6 mph N/A   Overcast
12:35 AM 66.2 °F - 55.4 °F 68% 30.04 in 10.0 mi South 10.4 mph - N/A   Overcast
12:55 AM 66.2 °F - 55.4 °F 68% 30.04 in 10.0 mi South 10.4 mph - N/A   Overcast
1:15 AM 66.2 °F - 55.4 °F 68% 30.04 in 10.0 mi South 9.2 mph - N/A   Overcast
1:35 AM 66.2 °F - 55.4 °F 68% 30.04 in 10.0 mi South 11.5 mph - N/A   Overcast
1:55 AM 66.2 °F - 57.2 °F 73% 30.04 in 10.0 mi South 12.7 mph - N/A   Overcast
2:15 AM 66.2 °F - 57.2 °F 73% 30.04 in 10.0 mi South 12.7 mph - N/A Rain Light Rain
2:35 AM 66.2 °F - 57.2 °F 73% 30.04 in 10.0 mi South 10.4 mph - N/A   Overcast
2:55 AM 66.2 °F - 57.2 °F 73% 30.04 in 10.0 mi South 11.5 mph 17.3 mph N/A   Overcast
3:15 AM 66.2 °F - 57.2 °F 73% 30.03 in 10.0 mi South 12.7 mph 17.3 mph N/A   Overcast
3:35 AM 66.2 °F - 57.2 °F 73% 30.03 in 10.0 mi South 9.2 mph - N/A   Overcast
3:55 AM 66.2 °F - 57.2 °F 73% 30.03 in 10.0 mi South 11.5 mph - N/A   Scattered Clouds
4:15 AM 68.0 °F - 57.2 °F 68% 30.03 in 10.0 mi South 11.5 mph 18.4 mph N/A   Mostly Cloudy
4:35 AM 68.0 °F - 57.2 °F 68% 30.04 in 10.0 mi South 12.7 mph 18.4 mph N/A   Mostly Cloudy
4:55 AM 68.0 °F - 57.2 °F 68% 30.04 in 10.0 mi South 10.4 mph 16.1 mph N/A   Overcast
5:15 AM 68.0 °F - 57.2 °F 68% 30.04 in 10.0 mi South 11.5 mph 16.1 mph N/A   Overcast
5:35 AM 66.2 °F - 57.2 °F 73% 30.04 in 10.0 mi South 11.5 mph - N/A   Overcast
5:55 AM 66.2 °F - 57.2 °F 73% 30.04 in 10.0 mi South 11.5 mph - N/A   Overcast
6:15 AM 66.2 °F - 57.2 °F 73% 30.05 in 10.0 mi SSW 10.4 mph 16.1 mph N/A   Overcast
6:35 AM 66.2 °F - 59.0 °F 78% 30.05 in 10.0 mi SSW 11.5 mph - N/A   Overcast
6:55 AM 68.0 °F - 59.0 °F 73% 30.06 in 10.0 mi South 11.5 mph 17.3 mph N/A   Overcast
7:15 AM 66.2 °F - 59.0 °F 78% 30.05 in 10.0 mi South 10.4 mph - N/A   Overcast
7:35 AM 66.2 °F - 59.0 °F 78% 30.06 in 10.0 mi South 10.4 mph 16.1 mph N/A   Overcast
7:55 AM 66.2 °F - 59.0 °F 78% 30.06 in 10.0 mi South 10.4 mph - N/A   Overcast
8:15 AM 66.2 °F - 59.0 °F 78% 30.06 in 7.0 mi South 11.5 mph 18.4 mph N/A Rain Rain
8:35 AM 66.2 °F - 60.8 °F 83% 30.06 in 7.0 mi South 9.2 mph - 0.07 in Rain , Thunderstorm Light Thunderstorms and Rain
8:55 AM 66.2 °F - 60.8 °F 83% 30.09 in 5.0 mi SW 15.0 mph 18.4 mph 0.09 in Rain , Thunderstorm Thunderstorms and Rain
9:15 AM 64.4 °F - 60.8 °F 88% 30.10 in 10.0 mi SW 10.4 mph - N/A Rain , Thunderstorm Thunderstorms and Rain
9:35 AM 64.4 °F - 60.8 °F 88% 30.09 in 10.0 mi West 9.2 mph - N/A Rain Rain
9:55 AM 64.4 °F - 60.8 °F 88% 30.11 in 10.0 mi WSW 9.2 mph - 0.01 in Rain Light Rain
10:15 AM 64.4 °F - 60.8 °F 88% 30.10 in 5.0 mi WSW 3.5 mph - N/A Rain , Thunderstorm Light Thunderstorms and Rain
10:35 AM 64.4 °F - 60.8 °F 88% 30.09 in 10.0 mi Calm Calm - 0.01 in Rain Light Rain
10:55 AM 64.4 °F - 60.8 °F 88% 30.07 in 7.0 mi Calm Calm - 0.01 in Thunderstorm Drizzle
11:15 AM 64.4 °F - 60.8 °F 88% 30.07 in 10.0 mi Calm Calm - N/A Thunderstorm Unknown
11:35 AM 66.2 °F - 62.6 °F 88% 30.09 in 7.0 mi WNW 9.2 mph - N/A Rain Light Rain
11:55 AM 60.8 °F - 57.2 °F 88% 30.08 in 10.0 mi NW 16.1 mph - N/A   Drizzle
12:15 PM 59.0 °F - 55.4 °F 88% 30.09 in 10.0 mi NNW 13.8 mph - N/A Rain Light Rain
12:35 PM 59.0 °F - 55.4 °F 88% 30.06 in 10.0 mi North 10.4 mph 17.3 mph N/A Rain Light Rain
12:55 PM 59.0 °F - 55.4 °F 88% 30.09 in 10.0 mi NNW 13.8 mph - N/A Rain Light Rain
1:15 PM 59.0 °F - 55.4 °F 88% 30.10 in 10.0 mi NNW 10.4 mph - N/A   Overcast
1:35 PM 57.2 °F - 53.6 °F 88% 30.11 in 10.0 mi NNW 8.1 mph - N/A Rain Rain
1:55 PM 57.2 °F - 53.6 °F 88% 30.11 in 10.0 mi North 10.4 mph - 0.01 in Rain Rain
2:15 PM 57.2 °F - 53.6 °F 88% 30.10 in 10.0 mi NNE 5.8 mph - 0.01 in Rain Rain
2:35 PM 57.2 °F - 53.6 °F 88% 30.12 in 10.0 mi North 4.6 mph - 0.01 in   Light Drizzle
2:55 PM 57.2 °F - 53.6 °F 88% 30.14 in 10.0 mi NW 5.8 mph - 0.01 in   Overcast
3:15 PM 55.4 °F - 51.8 °F 88% 30.14 in 5.0 mi North 5.8 mph - N/A   Drizzle
3:35 PM 55.4 °F - 51.8 °F 88% 30.16 in 4.0 mi NNW 9.2 mph - 0.01 in   Drizzle
3:55 PM 55.4 °F - 51.8 °F 88% 30.17 in 10.0 mi North 11.5 mph - 0.01 in   Overcast
4:15 PM 55.4 °F - 51.8 °F 88% 30.18 in 10.0 mi North 11.5 mph - N/A   Overcast
4:35 PM 55.4 °F - 51.8 °F 88% 30.18 in 10.0 mi North 9.2 mph - N/A   Overcast
4:55 PM 55.4 °F - 50.0 °F 82% 30.18 in 10.0 mi North 9.2 mph 16.1 mph N/A   Overcast
5:15 PM 55.4 °F - 50.0 °F 82% 30.19 in 10.0 mi North 6.9 mph - N/A   Overcast
5:35 PM 55.4 °F - 50.0 °F 82% 30.19 in 10.0 mi North 10.4 mph - N/A   Scattered Clouds
5:55 PM 55.4 °F - 50.0 °F 82% 30.20 in 10.0 mi North 5.8 mph - N/A   Mostly Cloudy
6:15 PM 55.4 °F - 50.0 °F 82% 30.21 in 10.0 mi North 6.9 mph - N/A   Overcast
6:35 PM 55.4 °F - 50.0 °F 82% 30.22 in 10.0 mi North 5.8 mph - N/A   Overcast
6:55 PM 55.4 °F - 48.2 °F 77% 30.23 in 10.0 mi North 5.8 mph - N/A   Overcast
7:15 PM 55.4 °F - 48.2 °F 77% 30.24 in 10.0 mi North 5.8 mph - N/A   Overcast
7:35 PM 53.6 °F - 46.4 °F 77% 30.24 in 10.0 mi North 5.8 mph - N/A   Scattered Clouds
7:55 PM 53.6 °F - 46.4 °F 77% 30.24 in 10.0 mi North 3.5 mph - N/A   Scattered Clouds
8:15 PM 51.8 °F - 44.6 °F 76% 30.24 in 10.0 mi North 5.8 mph - N/A   Scattered Clouds
8:35 PM 51.8 °F - 44.6 °F 76% 30.24 in 10.0 mi North 3.5 mph - N/A   Clear
8:55 PM 51.8 °F - 44.6 °F 76% 30.25 in 10.0 mi North 3.5 mph - N/A   Clear
9:15 PM 51.8 °F - 44.6 °F 76% 30.26 in 10.0 mi North 3.5 mph - N/A   Clear
9:35 PM 50.0 °F - 42.8 °F 76% 30.26 in 10.0 mi North 4.6 mph - N/A   Clear
9:55 PM 50.0 °F - 42.8 °F 76% 30.27 in 10.0 mi Calm Calm - N/A   Clear
10:15 PM 48.2 °F - 42.8 °F 82% 30.27 in 10.0 mi North 3.5 mph - N/A   Clear
10:35 PM 50.0 °F - 42.8 °F 76% 30.28 in 10.0 mi North 4.6 mph - N/A   Clear
10:55 PM 48.2 °F - 41.0 °F 76% 30.28 in 10.0 mi North 4.6 mph - N/A   Clear
11:15 PM 48.2 °F - 41.0 °F 76% 30.28 in 10.0 mi North 4.6 mph - N/A   Clear
11:35 PM 46.4 °F 45.2 °F 39.2 °F 76% 30.28 in 10.0 mi North 3.5 mph - N/A   Clear
11:55 PM 46.4 °F - 41.0 °F 81% 30.28 in 10.0 mi Calm Calm - N/A   Clear